Flag for Liechtenstein Weather past 2 weeks in Vaduz, Liechtenstein

Now
70 °F

Overcast.


Feels Like: 70 °F
Forecast: 57 / 83 °F
Wind: 2 mph from Southeast

Location: Vaduz

Current Time: Sep 18, 2014 at 8:54:09 PM

Latest Report: Sep 18, 2014 at 8:00 PM


Visibility: 13 mi

Pressure: 29.89 "Hg

Humidity: 50%

Dew point: 50 °F

Location of VaduzLocation

Historic Weather in Vaduz — Graph

°F

Vaduz temperature yesterday

Maximum temperature yesterday: 76 °F (at 2:00 PM)
Minimum temperature yesterday: 59 °F (at 7:00 AM)
Average temperature yesterday: 66 °F

Past Weeks' High & Low Weather Summary

 TemperatureHumidityPressure
High78 °F (Sep 18, 2:00 PM)98% (Sep 5, 2:00 AM)30.16 "Hg (Sep 5, 2:00 AM)
Low51 °F (Sep 4, 7:00 AM)33% (Sep 18, 2:00 PM)29.80 "Hg (Sep 17, 4:00 PM)
Average62 °F79%29.98 "Hg
* Reported Sep 3 7:00 PM — Sep 18 7:00 PM, Vaduz, Weather by CustomWeather, © 2014

Note: Actual official high and low records may vary slightly from our data, if they occured in-between our weather recording intervals... More about our weather records

Advertising

Vaduz weather history for previous 24 hours

 ConditionsComfort  
Time TempWeatherWind HumidityBarometerVisibility
7:00 PM
Sep 18
69 °FMild.2 mph53%29.88 "HgN/A
6:00 PM73 °FMild.5 mph43%29.87 "HgN/A
5:00 PM74 °FPartly sunny.5 mph39%29.85 "Hg7 mi
4:00 PM76 °FMild.7 mph38%29.83 "HgN/A
3:00 PM77 °FPleasantly warm.10 mph38%29.82 "HgN/A
2:00 PM78 °FScattered clouds.12 mph33%29.81 "Hg7 mi
1:00 PM77 °FWarm.1 mph42%29.81 "HgN/A
12:00 PM75 °FMild.3 mph40%29.83 "HgN/A
11:00 AM71 °FMild.5 mph47%29.87 "HgN/A
10:00 AM67 °FMild.5 mph54%29.89 "HgN/A
9:00 AM64 °FMild.5 mph59%29.90 "HgN/A
8:00 AM63 °FFog.5 mph59%29.90 "Hg6 mi
7:00 AM63 °FMild.6 mph58%29.89 "HgN/A
6:00 AM66 °FMild.6 mph52%29.87 "HgN/A
5:00 AM66 °FFog.5 mph52%29.87 "Hg5 mi
4:00 AM69 °FMild.8 mph47%29.86 "HgN/A
3:00 AM68 °FMild.5 mph47%29.87 "HgN/A
2:00 AM69 °FFog.6 mph48%29.86 "Hg5 mi
1:00 AM68 °FMild.3 mph50%29.87 "HgN/A
12:00 AM64 °FMild.2 mph60%29.88 "HgN/A
11:00 PM
Sep 17
65 °FFog.3 mph63%29.88 "Hg5 mi
10:00 PM61 °FCool.2 mph86%29.88 "HgN/A
9:00 PM65 °FMild.2 mph80%29.86 "HgN/A
8:00 PM66 °FFog.2 mph81%29.85 "Hg6 mi
Weather by CustomWeather, © 2014

See weather overviewHow to use our weather pages